[[{"header":{"parameterUnit":"m.s-1","parameterCategory":1,"la1":30.2991,"la2":30.254,"lo1":-89.0895,"lo2":-89.0444,"dy":0.0017,"dx":0.0017,"nx":28,"ny":28,"refTime":"2025-11-10T09:00:00:Z","depth":0,"parameterNumber":2,"parameterNumberName":"U-component_of_WINDS"},"data":[0,0,0,0,0,0,0,0,0,0,0,0,0,0,0,0,0,0,0,0,0,0,0,0,0,0,0,0,0,0,0,0,0,0,0,0,0,0,0,0,0,0,0,0,0,0,0,0,0,0,0,0,0,0,0,0,0,0,-1.0641,-1.0641,0,-1.0643,-1.0643,-1.0643,-1.0608,-1.0607,-1.0607,-1.0606,-1.0608,-1.0609,-1.061,0,0,0,0,0,0,0,0,0,0,0,0,0,-1.0607,-1.0608,-1.0641,-1.0641,-1.0641,-1.0643,-1.0643,-1.0643,-1.0609,-1.0607,-1.0606,-1.0605,-1.0607,-1.0608,-1.061,0,0,0,0,0,0,0,0,0,0,0,0,0,-1.0617,-1.0608,-1.0641,-1.0624,-1.0623,-1.0643,-1.0643,-1.0643,-1.0609,-1.0607,-1.0606,-1.0605,-1.0607,-1.0608,-1.061,-1.0646,0,0,-1.0614,-1.0615,0,0,0,0,0,0,0,0,-1.0616,-1.0618,-1.0627,-1.0626,-1.0624,-1.0624,-1.0631,-1.0644,-1.0609,-1.0614,-1.0606,-1.0604,-1.0614,-1.0615,-1.0618,-1.0646,-1.0646,-1.0614,-1.0615,-1.0615,-1.0616,0,0,0,0,0,0,0,-1.0616,-1.0618,-1.0642,-1.0627,-1.0625,-1.0616,-1.0616,-1.0633,-1.0622,-1.0614,-1.0611,-1.0612,-1.0613,-1.0617,-1.0618,-1.0646,-1.0614,-1.0615,-1.0616,-1.0617,-1.0699,-1.0701,0,0,0,0,0,0,-1.0617,-1.0617,-1.0642,-1.0642,-1.0617,-1.0618,-1.0618,-1.0625,-1.0622,-1.062,-1.0613,-1.061,-1.0615,-1.0616,-1.0618,-1.0658,-1.0615,-1.0617,-1.0618,-1.0698,-1.07,-1.0701,0,0,0,0,0,0,-1.0617,-1.062,-1.0642,-1.0629,-1.0631,-1.062,-1.0629,-1.0626,-1.063,-1.0621,-1.0619,-1.0619,-1.0614,-1.0616,-1.0638,-1.0657,-1.0617,-1.0619,-1.0696,-1.0699,-1.0701,-1.0739,0,0,0,0,0,0,-1.0616,-1.062,-1.0634,-1.0629,-1.0632,-1.0663,-1.063,-1.0627,-1.0632,-1.0629,-1.0626,-1.0625,-1.0613,-1.0636,-1.064,-1.0658,-1.062,-1.0695,-1.0697,-1.07,-1.0736,-1.0742,-1.0747,0,0,0,0,0,-1.0615,-1.0646,-1.0635,-1.0638,-1.0649,-1.0664,-1.0665,-1.0652,-1.0634,-1.0648,-1.0641,-1.0625,-1.0655,-1.0639,-1.0642,-1.0662,-1.0693,-1.0697,-1.07,-1.0733,-1.0741,-1.0747,0,0,0,0,0,0,-1.0654,-1.0645,-1.0633,-1.0663,-1.0664,-1.0658,-1.0675,-1.066,-1.0667,-1.0663,-1.0646,-1.0646,-1.067,-1.0668,-1.0651,-1.0695,-1.0671,-1.0675,-1.0695,-1.0702,-1.0708,-1.0707,-1.0621,0,0,0,0,0,-1.0666,-1.0679,-1.067,-1.0698,-1.0699,-1.0687,-1.0693,-1.0682,-1.0682,-1.0683,-1.0678,-1.0679,-1.0689,-1.0695,-1.0704,-1.0735,-1.0733,-1.075,-1.0756,-1.076,-1.0764,-1.0777,-1.0784,-1.0711,-1.0711,-1.0711,0,0,-1.0692,-1.0688,-1.0697,-1.0705,-1.0705,-1.0717,-1.0688,-1.0703,-1.0712,-1.0685,-1.0705,-1.0702,-1.0702,-1.0728,-1.0739,-1.0727,-1.0783,-1.0764,-1.0768,-1.0769,-1.0781,-1.0788,-1.0794,-1.0714,-1.0713,-1.0713,0,0,-1.0744,-1.0743,-1.0765,-1.0764,-1.0763,-1.0755,-1.076,-1.0755,-1.0751,-1.0771,-1.075,-1.076,-1.0777,-1.0777,-1.0779,-1.0828,-1.0812,-1.0831,-1.0861,-1.0874,-1.088,-1.0884,-1.09,-1.0906,-1.0834,-1.0835,-1.0835,0,-1.0776,-1.0794,-1.0778,-1.0793,-1.0796,-1.0772,-1.0792,-1.0793,-1.0795,-1.0797,-1.0783,-1.0802,-1.0801,-1.0825,-1.0836,-1.084,-1.0843,-1.0831,-1.088,-1.0885,-1.0889,-1.0903,-1.091,-1.0837,-1.0836,-1.0836,-1.0836,0,-1.0832,-1.0844,-1.0862,-1.0863,-1.0868,-1.0886,-1.0872,-1.0879,-1.0867,-1.0859,-1.0878,-1.0874,-1.088,-1.0885,-1.0874,-1.0907,-1.0899,-1.0883,-1.0859,-1.0899,-1.0912,-1.0917,-1.084,-1.0839,-1.0838,-1.0838,0,0,-1.0911,-1.09,-1.0907,-1.0905,-1.0901,-1.091,-1.0926,-1.0931,-1.0936,-1.0938,-1.095,-1.0964,-1.0947,-1.095,-1.0938,-1.095,-1.0986,-1.0932,-1.0932,-1.0941,-1.1019,-1.103,-1.1037,-1.0975,-1.0976,-1.0977,-1.1018,0,-1.096,-1.0987,-1.0971,-1.1,-1.101,-1.0985,-1.0998,-1.0996,-1.0989,-1.0996,-1.0988,-1.0997,-1.0976,-1.0977,-1.0987,-1.0979,-1.1001,-1.0976,-1.0984,-1.0985,-1.0984,-1.1044,-1.1057,-1.1096,-1.1023,-1.1024,-1.1025,0,-1.1021,-1.1024,-1.1053,-1.1044,-1.1047,-1.106,-1.1061,-1.1069,-1.1065,-1.1059,-1.106,-1.1044,-1.1058,-1.1034,-1.1051,-1.1034,-1.1036,-1.1033,-1.1034,-1.1034,-1.1007,-1.1044,-1.1109,-1.1114,-1.1033,-1.1032,-1.1032,0,-1.1073,-1.1084,-1.1102,-1.1102,-1.1092,-1.1101,-1.1098,-1.1093,-1.1095,-1.1097,-1.1098,-1.1101,-1.1102,-1.1104,-1.1089,-1.1074,-1.1108,-1.1083,-1.1102,-1.1102,-1.111,-1.1109,-1.1174,-1.1113,-1.1113,-1.1113,-1.1113,0,-1.113,-1.1148,-1.1125,-1.1136,-1.1155,-1.1136,-1.1155,-1.1149,-1.1144,-1.1153,-1.1132,-1.114,-1.112,-1.1126,-1.1114,-1.1129,-1.113,-1.1124,-1.1121,-1.1125,-1.1126,-1.1126,-1.1123,-1.1115,-1.1114,-1.1114,-1.1114,0,-1.1191,-1.1177,-1.1194,-1.1183,-1.118,-1.1194,-1.1184,-1.1193,-1.1183,-1.1194,-1.1195,-1.118,-1.1185,-1.117,-1.1174,-1.1165,-1.1186,-1.1179,-1.1187,-1.1184,-1.1203,-1.1201,-1.127,-1.1277,-1.1213,-1.1213,-1.1214,0,-1.1228,-1.1241,-1.123,-1.1233,-1.123,-1.1237,-1.1239,-1.122,-1.1223,-1.1218,-1.1227,-1.123,-1.1232,-1.1241,-1.123,-1.1232,-1.1224,-1.1247,-1.1224,-1.1227,-1.1222,-1.1221,-1.1221,-1.1252,-1.1253,-1.1254,-1.1254,0,-1.1293,-1.1284,-1.1288,-1.1288,-1.1291,-1.129,-1.1288,-1.1293,-1.1272,-1.1276,-1.1281,-1.1282,-1.1284,-1.1287,-1.1285,-1.1281,-1.1263,-1.1262,-1.1266,-1.127,-1.1274,-1.127,-1.1199,-1.126,-1.126,-1.1259,-1.1259,-1.1259,-1.1342,-1.1351,-1.1344,-1.1348,-1.1344,-1.1342,-1.1348,-1.1338,-1.1342,-1.1342,-1.133,-1.1336,-1.1329,-1.1326,-1.1322,-1.1326,-1.1315,-1.1322,-1.1323,-1.1325,-1.1327,-1.1274,-1.1326,-1.1326,-1.1326,-1.1326,-1.1326,0,-1.1404,-1.1397,-1.1401,-1.1398,-1.14,-1.1383,-1.1379,-1.1382,-1.1388,-1.1383,-1.1384,-1.1388,-1.139,-1.1378,-1.1377,-1.1383,-1.1375,-1.1383,-1.1382,-1.1381,-1.1338,-1.1333,-1.1389,-1.1389,-1.1389,-1.1389,-1.1389,-1.1389,-1.1437,-1.1451,-1.1441,-1.1452,-1.1445,-1.145,-1.1449,-1.1446,-1.1442,-1.1447,-1.1448,-1.1439,-1.1431,-1.1429,-1.143,-1.1426,-1.1426,-1.1437,-1.143,-1.139,-1.1384,-1.1378,-1.1374,-1.1437,-1.1438,-1.1473,-1.1473,-1.1473]},{"header":{"parameterUnit":"m.s-1","parameterCategory":1,"la1":30.2991,"la2":30.254,"lo1":-89.0895,"lo2":-89.0444,"dy":0.0017,"dx":0.0017,"nx":28,"ny":28,"refTime":"2025-11-10T09:00:00:Z","depth":0,"parameterNumber":3,"parameterNumberName":"V-component_of_WINDS"},"data":[0,0,0,0,0,0,0,0,0,0,0,0,0,0,0,0,0,0,0,0,0,0,0,0,0,0,0,0,0,0,0,0,0,0,0,0,0,0,0,0,0,0,0,0,0,0,0,0,0,0,0,0,0,0,0,0,0,0,-6.7935,-6.7937,0,-6.8075,-6.8076,-6.8078,-6.7971,-6.7967,-6.7962,-6.7958,-6.8094,-6.8102,-6.811,0,0,0,0,0,0,0,0,0,0,0,0,0,-6.757,-6.7577,-6.7935,-6.7937,-6.7939,-6.8074,-6.8076,-6.8078,-6.7972,-6.7966,-6.7961,-6.7956,-6.8092,-6.8101,-6.8111,0,0,0,0,0,0,0,0,0,0,0,0,0,-6.7721,-6.758,-6.7935,-6.7902,-6.7901,-6.8074,-6.8076,-6.8079,-6.7973,-6.7966,-6.7959,-6.7953,-6.8089,-6.81,-6.8112,-6.8323,0,0,-6.8148,-6.8153,0,0,0,0,0,0,0,0,-6.7712,-6.7734,-6.7905,-6.7905,-6.7903,-6.7999,-6.7997,-6.816,-6.7975,-6.7946,-6.7958,-6.795,-6.8068,-6.8081,-6.8122,-6.8329,-6.8335,-6.8149,-6.8156,-6.8162,-6.8165,0,0,0,0,0,0,0,-6.7702,-6.7728,-6.799,-6.7908,-6.7907,-6.7878,-6.7892,-6.8028,-6.8043,-6.7948,-6.794,-6.7958,-6.8066,-6.8111,-6.8124,-6.8337,-6.8149,-6.8159,-6.8167,-6.8171,-6.8722,-6.8729,0,0,0,0,0,0,-6.7696,-6.772,-6.7986,-6.7994,-6.7789,-6.789,-6.7906,-6.7975,-6.8042,-6.8045,-6.7964,-6.7953,-6.8094,-6.8111,-6.8129,-6.8378,-6.8161,-6.8173,-6.8179,-6.8714,-6.8723,-6.8732,0,0,0,0,0,0,-6.7688,-6.772,-6.798,-6.7855,-6.7886,-6.7904,-6.7982,-6.7981,-6.8026,-6.8054,-6.8056,-6.8008,-6.8089,-6.8112,-6.8275,-6.8382,-6.8178,-6.8189,-6.8706,-6.8717,-6.8728,-6.8881,0,0,0,0,0,0,-6.7678,-6.7718,-6.7801,-6.7858,-6.7893,-6.8127,-6.7989,-6.7989,-6.8048,-6.8034,-6.8096,-6.8099,-6.8085,-6.8258,-6.8287,-6.8394,-6.8198,-6.8696,-6.8711,-6.8724,-6.8866,-6.8896,-6.8921,0,0,0,0,0,-6.7666,-6.7837,-6.7805,-6.7838,-6.7997,-6.8133,-6.8153,-6.8136,-6.8057,-6.8138,-6.8156,-6.8097,-6.8366,-6.8276,-6.8307,-6.842,-6.8689,-6.8707,-6.8723,-6.8854,-6.889,-6.8921,0,0,0,0,0,0,-6.779,-6.7844,-6.7809,-6.8005,-6.8066,-6.8115,-6.8218,-6.8175,-6.8258,-6.8242,-6.8214,-6.8229,-6.84,-6.8426,-6.8325,-6.8626,-6.8514,-6.8538,-6.8603,-6.8638,-6.8665,-6.8654,-6.8208,0,0,0,0,0,-6.7841,-6.795,-6.799,-6.8159,-6.8191,-6.82,-6.8259,-6.824,-6.8301,-6.8325,-6.8355,-6.8414,-6.8511,-6.8576,-6.8667,-6.887,-6.888,-6.8963,-6.899,-6.9012,-6.9033,-6.914,-6.9176,-6.8787,-6.8787,-6.8787,0,0,-6.7946,-6.7989,-6.8059,-6.8185,-6.823,-6.8341,-6.8222,-6.8344,-6.8426,-6.8343,-6.8499,-6.8523,-6.8587,-6.8771,-6.8853,-6.8797,-6.9143,-6.9034,-6.9052,-6.906,-6.9161,-6.9198,-6.923,-6.8798,-6.8796,-6.8795,0,0,-6.8194,-6.8239,-6.8384,-6.8431,-6.8501,-6.8505,-6.854,-6.8596,-6.8609,-6.8766,-6.8706,-6.88,-6.897,-6.9017,-6.9063,-6.9329,-6.9277,-6.9359,-6.9502,-6.9606,-6.9637,-6.9664,-6.9757,-6.9791,-6.938,-6.938,-6.938,0,-6.8316,-6.8483,-6.8463,-6.8591,-6.8646,-6.8579,-6.8723,-6.8769,-6.8865,-6.8904,-6.8841,-6.9051,-6.9089,-6.9282,-6.9346,-6.9387,-6.9424,-6.9351,-6.9635,-6.9662,-6.9686,-6.9774,-6.981,-6.9389,-6.9388,-6.9387,-6.9387,0,-6.8627,-6.8744,-6.8852,-6.8948,-6.9016,-6.9151,-6.9149,-6.922,-6.9196,-6.9206,-6.9365,-6.9409,-6.9507,-6.9551,-6.9528,-6.974,-6.9704,-6.9639,-6.9525,-6.9733,-6.9815,-6.9849,-6.9403,-6.94,-6.9397,-6.9394,0,0,-6.8958,-6.9041,-6.9081,-6.9122,-6.9194,-6.9282,-6.9413,-6.9511,-6.9571,-6.9639,-6.9747,-6.9891,-6.9831,-6.9884,-6.9865,-6.9957,-7.0161,-6.988,-6.988,-6.9929,-7.0396,-7.0443,-7.0483,-7.0128,-7.0134,-7.0139,-7.039,0,-6.9209,-6.944,-6.9425,-6.9641,-6.9746,-6.9683,-6.9796,-6.9851,-6.9864,-6.9953,-6.9966,-7.0068,-6.9982,-7.0013,-7.0102,-7.0118,-7.0254,-7.01,-7.0225,-7.023,-7.021,-7.0526,-7.0577,-7.0812,-7.0422,-7.0427,-7.0431,0,-6.9532,-6.9612,-6.9839,-6.9893,-6.9937,-7.004,-7.0127,-7.0215,-7.0274,-7.0277,-7.0336,-7.0301,-7.0431,-7.0315,-7.0492,-7.0387,-7.0437,-7.0453,-7.0461,-7.0471,-7.0342,-7.0543,-7.0886,-7.0921,-7.0482,-7.0478,-7.0474,0,-6.9748,-6.9913,-7.007,-7.0107,-7.0175,-7.0248,-7.0279,-7.0332,-7.0392,-7.0467,-7.0505,-7.0594,-7.0643,-7.0712,-7.0701,-7.0619,-7.088,-7.0765,-7.0884,-7.0884,-7.0941,-7.0938,-7.1296,-7.0976,-7.0976,-7.0975,-7.0974,0,-7.0029,-7.017,-7.0168,-7.0264,-7.0419,-7.04,-7.0553,-7.0575,-7.0623,-7.072,-7.067,-7.0762,-7.0743,-7.0835,-7.0827,-7.0973,-7.0996,-7.0999,-7.0995,-7.1004,-7.1003,-7.1035,-7.1018,-7.0984,-7.0982,-7.098,-7.0979,0,-7.0297,-7.0301,-7.0467,-7.0518,-7.0534,-7.0646,-7.0687,-7.0777,-7.0785,-7.0909,-7.0937,-7.0949,-7.1054,-7.105,-7.1169,-7.1163,-7.1343,-7.1321,-7.1323,-7.1318,-7.1437,-7.1426,-7.1828,-7.1879,-7.1528,-7.1531,-7.1534,0,-7.0475,-7.0582,-7.0644,-7.0706,-7.0743,-7.0844,-7.0904,-7.0889,-7.0953,-7.1029,-7.1109,-7.1209,-7.1288,-7.1458,-7.1476,-7.1565,-7.1544,-7.1679,-7.1557,-7.1561,-7.1544,-7.1537,-7.1547,-7.1702,-7.1706,-7.1709,-7.1712,0,-7.079,-7.0787,-7.0877,-7.0968,-7.1042,-7.1112,-7.1176,-7.123,-7.1221,-7.1295,-7.1403,-7.1464,-7.1585,-7.1684,-7.177,-7.1799,-7.1754,-7.175,-7.1782,-7.1791,-7.1788,-7.1789,-7.1387,-7.1741,-7.1738,-7.1736,-7.1734,-7.1733,-7.1017,-7.1109,-7.1166,-7.1268,-7.1315,-7.1376,-7.1463,-7.1482,-7.1572,-7.167,-7.1655,-7.1774,-7.1829,-7.194,-7.1977,-7.2068,-7.202,-7.2067,-7.2078,-7.209,-7.2103,-7.1774,-7.2084,-7.2083,-7.2082,-7.2081,-7.2081,0,-7.1328,-7.1362,-7.1456,-7.1548,-7.1627,-7.158,-7.1648,-7.1717,-7.1823,-7.1879,-7.1958,-7.208,-7.2176,-7.2202,-7.2293,-7.2361,-7.2343,-7.2386,-7.238,-7.2387,-7.2141,-7.2104,-7.2399,-7.2399,-7.2399,-7.2399,-7.2399,-7.2399,-7.1499,-7.1651,-7.1655,-7.1828,-7.186,-7.1978,-7.2021,-7.2077,-7.2121,-7.226,-7.234,-7.2357,-7.24,-7.2494,-7.2579,-7.2583,-7.2619,-7.267,-7.2667,-7.2436,-7.2404,-7.2374,-7.2338,-7.2679,-7.2679,-7.2904,-7.2906,-7.2908]}]]